www.pogodaiklimat.ru

Погода и климат >> Архив погоды >> Россия >> Приморский край >> Сосуново


ПОГОДА в Сосуново

  • Прогноз погоды в Сосуново
  • Монитор погоды в Сосуново
  • Климат города

АРХИВ ПОГОДЫ в Сосуново

Время (UTC), дата Ветер
(напр.,м/с)
 
Видим.   Явления Облачность Т
(С)
Тd
(С)
f
(%)
Тe
(С)
Тes
(С)
Комфортность P
(гПа)
Po
(гПа)
Тmin
(С)
Tmax
(С)
R
(мм)
S
(см)
09 17.02 З 4
{15}
50 км ясно -7.5 -23.8 26 -14 -14 1002.9 1002.5 -3.1
12 17.02 З 6-13
{17}
50 км ясно -9.2 -24.0 29 -17 -17 1004.3 1003.9
15 17.02 З 9-16
{19}
50 км ясно -11.4 -24.7 32 -22 -22 1004.8 1004.4
18 17.02 З 9-15
{18}
50 км ясно -12.5 -25.8 32 -23 -23 1005.7 1005.2
21 17.02 З 11-21
{21}
50 км 3/3 1000 м
[Sc]
-12.7 -25.8 32 -24 -24 1005.9 1005.5 -12.8 0
00 18.02 З 10-16
{21}
50 км 8/0
[Ci fib]
-11.2 -25.3 30 -22 -22 1006.4 1006.0
03 18.02 З 8-15
{20}
50 км 6/0
[Ci fib]
-7.7 -23.1 28 -16 -15 1006.1 1005.6
06 18.02 З 6-11
{15}
50 км 4/0
[Cs]
-6.5 -23.3 25 -14 -13 1005.7 1005.3
09 18.02 З 7-13
{14}
50 км 3/0
[Ci fib]
-9.7 -23.5 31 -18 -18 1007.7 1007.3 -6.3
12 18.02 З 9-15
{16}
50 км ясно -11.4 -24.6 33 -22 -22 1009.5 1009.0
15 18.02 З 8-11
{16}
50 км ясно -12.1 -24.4 35 -22 -22 1009.8 1009.4
18 18.02 З 9-14
{14}
50 км ясно -12.7 -24.3 37 -23 -23 1010.7 1010.2
21 18.02 З 7-11
{15}
50 км ясно -12.9 -24.6 37 -23 -23 1011.5 1011.1 -13.1 0
00 19.02 З 8-12
{12}
50 км ясно -10.9 -23.7 34 -21 -20 1012.3 1011.9
03 19.02 З 5
{12}
50 км ясно -6.8 -21.9 29 -13 -10 1011.1 1010.7
06 19.02 З 4
{10}
50 км 1/1 600 м
[Sc]
-4.8 -21.9 25 -10 -9 1009.6 1009.2
09 19.02 З 5
{10}
50 км ясно -8.0 -22.6 30 -15 -15 1010.1 1009.7 -4.8
12 19.02 З 6 50 км ясно -10.9 -23.0 36 -19 -19 1010.6 1010.2
15 19.02 З 5 50 км ясно -12.1 -23.6 38 -20 -20 1010.5 1010.1
18 19.02 З 6 50 км ясно -12.6 -24.6 36 -22 -22 1010.6 1010.2
21 19.02 Ю 5 50 км ясно -18.3 -24.5 58 -28 -28 1010.0 1009.6 -18.3 0
00 20.02 ЮЗ 4 50 км 1/0
[Ci fib]
-14.0 -22.9 47 -22 -19 1010.9 1010.5 -19.1
03 20.02 СВ 5 50 км ясно -8.1 -18.5 43 -15 -12 1009.3 1008.9
06 20.02 СВ 3 50 км ясно -7.8 -18.4 42 -13 -11 1007.8 1007.4
09 20.02 СЗ 2 50 км ясно -12.1 -19.7 53 -17 -17 1008.5 1008.0 -7.6
12 20.02 ЮЗ 3 50 км ясно -15.6 -20.1 68 -22 -22 1010.2 1009.7
15 20.02 ЮЗ 1 н/о н/о -13.3 -22.3 47 -16 -16 1011.0 1010.6
18 20.02 З 4 50 км ясно -12.0 -25.2 32 -19 -19 1012.3 1011.9
21 20.02 З 6 50 км ясно -12.4 -25.3 33 -21 -21 1014.1 1013.7 -16.4 0
00 21.02 СЗ 3
{11}
50 км ясно -9.6 -24.0 30 -15 -12 1015.9 1015.5
03 21.02 З 6-11
{12}
50 км ясно -5.2 -22.4 24 -12 -9 1015.3 1014.9
06 21.02 ЮВ 5
{11}
50 км ясно -4.2 -21.9 24 -11 -9 1016.2 1015.8
09 21.02 З 5 50 км ясно -5.1 -21.9 25 -11 -11 1018.8 1018.3 -2.8
12 21.02 СЗ 1 50 км ясно -10.9 -21.7 41 -13 -13 1021.3 1020.8
15 21.02 СЗ 3 50 км ясно -14.4 -21.3 56 -21 -21 1021.9 1021.5
18 21.02 ЮЗ 4 50 км ясно -15.2 -20.8 62 -23 -23 1021.6 1021.2
21 21.02 ЮЗ 5 50 км 10/0
[As op]
-13.3 -20.5 55 -22 -22 1020.5 1020.1 -16.3 0
00 22.02 ЮЗ 5 50 км 10/0
[As trans]
-9.1 -18.4 47 -17 -16 1019.4 1019.0
03 22.02 Ю 4 50 км 10/0
[As trans]
-4.8 -13.3 51 -11 -9 1016.4 1016.0
06 22.02 Ю 2 50 км 10/0
[As op]
-3.3 -11.6 53 -7 -6 1014.0 1013.6
09 22.02 Ю 3 50 км 10/0
[As op]
-3.7 -9.8 63 -9 -9 1012.9 1012.5 -3.2
12 22.02 ЮЗ 3 50 км 10/0
[As op]
-4.5 -7.9 77 -10 -10 1011.1 1010.7
15 22.02 ЮЗ 2 4000 м слабый снег 10/0
[As op]
-6.6 -8.8 84 -11 -11 1008.6 1008.1
18 22.02 ЮЗ 2 4000 м слабый снег 10/0
[As op]
-6.8 -8.3 89 -11 -11 1006.7 1006.3
21 22.02 СЗ 1 4000 м слабый снег 10/0
[As op]
-6.5 -8.0 89 -9 -9 1004.9 1004.5 -6.8 1 2
00 23.02 С 6 10 км слабый снег 8/0
[As op]
-4.4 -7.6 78 -12 -11 1003.7 1003.3 -8.0
03 23.02 С 9-11
{11}
20 км {снег} 8/8 600 м
[Sc]
-3.6 -6.9 78 -12 -12 1001.7 1001.3
06 23.02 СВ 9-11
{11}
20 км {снег} 6/6 600 м
[Sc]
-3.3 -6.2 80 -12 -12 999.7 999.3
09 23.02 С 9-14
{14}
4000 м слабый снег 10/0
[As op]
-4.0 -5.9 87 -13 -13 1000.2 999.8 -3.1 0.0
12 23.02 С 3
{14}
4000 м слабый ливневой снег 10/0
[As op]
-4.9 -6.5 89 -10 -10 1001.4 1001.0
15 23.02 СЗ 3 20 км {ливн. осадки} 4/0
[Ci fib]
-6.3 -9.8 76 -12 -12 1002.0 1001.5
18 23.02 З 7
{13}
20 км {ливн. осадки} ясно -7.5 -17.3 45 -16 -16 1003.6 1003.2
21 23.02 З 5
{11}
20 км 6/0
[As op]
-8.9 -18.5 46 -16 -16 1005.8 1005.4 -8.9 0.5 9
00 24.02 З 5
{11}
50 км ясно -5.8 -18.2 37 -12 -11 1007.2 1006.7 -9.0
03 24.02 З 4
{13}
50 км 3/3 1000 м
[Sc]
-3.6 -19.0 29 -9 -5 1007.1 1006.7

 

Местоположение метеостанции Сосуново (Приморский край, Россия): широта 46.55 долгота 138.30 высота над уровнем моря 4 м.

В архиве по умолчанию представлена погода в Сосуново за последнюю неделю. Архивные данные за месяц целиком и за предыдущие месяцы, начиная с января 2011 года, Вы можете получить, выбрав интересующий диапазон дат из раскрывающегося списка и нажав кнопку "Ввод!".

Внимание! Время в таблицах - всемирное. Для получения местного времени необходимо прибавить поправку, которая в Сосуново равна 10 ч.

Смотрите также архив погоды в соседних городах и на ближайших метеорологических станциях:

Погода в Охотничем (Приморский край, Россия) (107 км)
Погода в Агзу (Приморский край, Россия) (117 км)
Погода в Сукпае (Хабаровский край, Россия) (142 км)
Погода в Малой Кеме (Приморский край, Россия) (158 км)
Погода в Гвасюгах (Хабаровский край, Россия) (208 км)
Погода в Тернее (Приморский край, Россия) (217 км)
Погода на Остров Монерон (Сахалинская область, Россия) (225 км)
Погода в Красном Яре (Приморский край, Россия) (230 км)
Погода в Глубинном (Приморский край, Россия) (237 км)
Погода в Бичевой (Хабаровский край, Россия) (245 км)

Пояснения к столбцам:

Ветер - указаны скорость ветра в м/с - средняя за 10 мин, порывы в срок и между сроками (в фигурных скобках) и направление, откуда дует ветер: С - северный, СВ - северо-восточный, В - восточный, ЮВ - юго-восточный, Ю - южный, ЮЗ - юго-западный, З - западный, СЗ - северо-западный.
Видимость - горизонтальная дальность видимости в метрах или километрах. При видимости от 1 до 10 км при отсутствии осадков обычно наблюдается дымка, при ухудшении видимости до 1 км и менее - туман. В сухую погоду видимость может ухудшаться дымом, пылью или мглою.
Явления - указаны атмосферные явления, наблюдавшиеся в срок или в последний час перед сроком; фигурными скобками обозначены явления, наблюдавшиеся между сроками (за 1-3 часа до срока); квадратными скобками обозначены град или гололедные отложения с указанием их диаметра в мм.
Облачность - указаны через наклонную черту общая и нижняя облачность в баллах и высота нижней границы облаков в метрах; квадратными скобками обозначены формы облаков: Ci - перистые, Cs - перисто-слоистые, Cc - перисто-кучевые, Ac - высококучевые, As - высокослоистые, Sc - слоисто-кучевые, Ns - слоисто-дождевые, Cu - кучевые, Cb - кучево-дождевые. Подробнее классификацию облаков см. в Атласе облаков (PDF).
T - Температура воздуха - температура, измеренная на высоте 2 м над землей.
Td - Температура точки росы - температура, при понижении до которой содержащийся в воздухе водяной пар достигнет насыщения.
f - Относительная влажность воздуха - влажноcть воздуха, измеренная на высоте 2 м над землей.
Te - Эффективная температура - температура, которую ощущает одетый по сезону человек в тени. Характеристика душности погоды. При расчете учитывается влияние влажности воздуха и скорости ветра на теплоощущения человека.
Tes - Эффективная температура на солнце - температура, которую ощущает человек, с поправкой на солнечный нагрев. Характеристика знойности погоды. Зависит от высоты солнца над горизонтом, облачности и скорости ветра. Ночью, в пасмурную погоду, а также при ветре 12 м/с и более поправка равна нулю.
P - Атмосферное давление - приведенное к уровню моря атмосферное давление.
Po - Атмосферное давление - измеренное на уровне метеостанции атмосферное давление.
Tmin - Минимальная температура - минимум температуры воздуха на высоте 2 м над землей.
Tmax - Максимальная температура - максимум температуры воздуха на высоте 2 м над землей.
R - Количество осадков - Количество выпавших осадков, мм. При наведении курсора мыши на число - период времени, за который выпало указанное количество осадков.
S - Снежный покров - Высота снежного покрова, см. При наведении курсора мыши на число - состояние снежного покрова и степень покрытия местности в баллах.